Location: Barcelona
(41.3829°N, 2.1774°E)
Time: 13:37:26
(UTC+00:00)

ISS - Pass Details

Date: 14 July 2024
Orbit: 410 x 424 km, 51.6° (Epoch: 14 July)

Event Time Altitude Azimuth Distance (km) Brightness Sun altitude
Rises 20:59:09 0° 281° (W) 2,337 0.9 -14.8°
Reaches altitude 10° 21:01:44 10° 302° (WNW) 1,477 0.2 -15.1°
Maximum altitude 21:04:03 18° 346° (NNW) 1,108 -0.8 -15.4°
Drops below altitude 10° 21:06:22 10° 31° (NNE) 1,480 -0.8 -15.7°
Sets 21:08:58 0° 52° (NE) 2,345 0.0 -16.0°
